User: anonymous   Login
Location: Unspecified
(0.0000°N, 0.0000°E)
Time: 08:20:31
(UTC+00:00)
Language:

Vela 3A - Orbit

View from above orbital plane
View from above orbital plane
View from above satellite
View from above satellite

Ground track
Ground track

The orbit data is extracted from the following two-line orbital elements,

1 01458U 65058A   14304.89179168 -.00001367  00000-0  00000+0 0   115
2 01458 021.0515 012.0406 4856480 191.1914 001.0086 00.21688964 77113
Epoch (UTC): 31 October 2014 21:24:10
Eccentricity: 0.4856480
inclination: 21.0515°
perigee height: 53808 km
apogee height: 167463 km
right ascension of ascending node: 12.0406°
argument of perigee: 191.1914°
revolutions per day: 0.21688964
mean anomaly at epoch: 1.0086°
orbit number at epoch: 7711

The dashed part of the orbit path shows where the satellite is in the earth's shadow,  

DLR